Regional Weather Roundup
Issued by NWS

Home | Current Version | Previous Version | Text Only | Print | Product List | Glossary Off
Versions: 1 2 3 4 5 6 7 8 9 10 11 12 13 14 15 16 17 18 19 20 21 22 23 24 25 26 27 28 29 30 31 32 33 34 35 36 37 38 39 40 41 42 43 44 45 46 47 48 49 50

704
ASUS43 KDTX 081010
RWRMI
MICHIGAN HOURLY REGIONAL WEATHER ROUNDUP
NATIONAL WEATHER SERVICE DETROIT/PONTIAC MI
500 AM EST MON FEB 08 2016

NOTE: "FAIR" INDICATES FEW OR NO CLOUDS BELOW 12,000 FEET WITH NO
SIGNIFICANT WEATHER AND/OR OBSTRUCTION TO VISIBILITY.

MIZ047>049-052>055-059>063-066>070-074>076-081>083-081100-
SOUTHEAST LOWER MICHIGAN

CITY           SKY/WX    TMP DP  RH WIND       PRES   REMARKS
ADRIAN         CLOUDY    34  30  85 W5        29.64F WCI  30
ALMA           PTCLDY    32  31  98 SW7       29.61S WCI  26
ANN ARBOR      CLOUDY    32  30  92 SW3       29.63S
BAD AXE        CLOUDY    36  32  86 CALM      29.62S
CARO           CLOUDY    36  32  87 SW3       29.60F
DETROIT CITY   CLOUDY    40  32  73 W3        29.63F
DETROIT        CLOUDY    37  32  81 SW8       29.64F WCI  31
FLINT          CLOUDY    37  29  72 SW5       29.62F WCI  33
GROSSE ILE     CLOUDY    39  34  81 SW3       29.62F
HILLSDALE      CLOUDY    31  29  94 CALM      29.61F
HOWELL         CLOUDY    34  31  90 SW3       29.62S

CITY           SKY/WX    TMP DP  RH WIND       PRES   REMARKS
JACKSON        CLOUDY    31  28  89 CALM      29.62F
LAMBERTVILLE   CLOUDY    36  32  84 CALM      29.64F
LANSING        CLOUDY    30  27  88 S5        29.62F WCI  25
LAPEER         FAIR      37  32  82 W3        29.61F
MASON          CLOUDY    32  29  90 CALM      29.62S
MONROE         CLOUDY    37  32  82 W5        29.63F WCI  33
MT. CLEMENS    LGT RAIN  36  34  91 CALM      29.61F
PONTIAC        CLOUDY    36  30  79 W6        29.60F WCI  31
PORT HOPE        N/A     38  31  76 SW5       29.60F WCI  34
PORT HURON     CLOUDY    37  32  81 CALM      29.63S
TRI CITIES     CLOUDY    35  30  82 S5        29.61F WCI  31
MIDLAND        FAIR      30  29  94 CALM      29.60S
TROY           CLOUDY    40  32  73 CALM      29.63F
SAGINAW HB     CLOUDY    36  32  87 SW7       29.61S WCI  30
$$
MIZ043>046-050>051-056>058-064>065-071>073-077>080-081100-
SOUTHWEST LOWER MICHIGAN

CITY           SKY/WX    TMP DP  RH WIND       PRES   REMARKS
BATTLE CREEK   PTCLDY    29  25  85 SW5       29.62F WCI  24
BENTON HARBOR  CLEAR     28  25  88 CALM      29.62F
BIG RAPIDS     PTCLDY    29  28  96 CALM      29.58S
COLDWATER      PTCLDY    31  29  92 SW3       29.62S
FREMONT        FAIR      28  28 100 CALM      29.58F
HOLLAND        CLEAR     30  26  85 CALM      29.61F
GRAND RAPIDS   CLEAR     27  25  92 S7        29.61S WCI  19
IONIA          FAIR      30  28  94 SW3       29.60S
KALAMAZOO      CLEAR     27  23  85 SW7       29.62F WCI  19
LUDINGTON      CLOUDY    34  32  91 SW5       29.58S WCI  30
MARSHALL       PTCLDY    30  28  91 CALM      29.61F
MOUNT PLEASANT PTCLDY    32  28  85 SW3       29.59S
MUSKEGON       PTCLDY    32  27  81 SW6       29.60F WCI  26
SOUTH HAVEN    CLEAR     34  31  89 SW3       29.62F
$$
MIZ016>042-081100-
NORTHERN LOWER MICHIGAN

CITY           SKY/WX    TMP DP  RH WIND       PRES   REMARKS
ALPENA         CLOUDY    28  26  92 CALM      29.60S
BEAVER ISLAND  CLOUDY    34  34  99 SE3       29.55S
BELLAIRE       CLEAR     27  26  97 CALM      29.58F FOG
CADILLAC       PTCLDY    30  29  95 S3        29.55S
CHARLEVOIX     CLEAR     32  31  96 CALM      29.59S
FRANKFORT      CLOUDY    34  31  89 SE3       29.57S
GAYLORD        FOG       27  25  92 CALM      29.56S VSB 1/4
GRAYLING       FOG       22  21  96 CALM      29.58R VSB 1/4
HARBOR SPRINGS CLEAR     31  30  93 CALM      29.56F
HOUGHTON LAKE  CLOUDY    27  25  92 E3        29.58S FOG
MANISTEE       CLOUDY    30  27  86 E3        29.58S
OSCODA         CLOUDY    30  29  95 CALM      29.60S
PELLSTON       MOCLDY    31  29  92 CALM      29.57F
ROGERS CITY    PTCLDY    32  28  85 SE5       29.60S WCI  27
TRAVERSE CITY  CLOUDY    35  29  78 S3        29.56S
$$
MIZ007>008-015-081100-
EASTERN UPPER MICHIGAN

CITY           SKY/WX    TMP DP  RH WIND       PRES   REMARKS
KINROSS        CLOUDY    34  34 100 SE6       29.57R WCI  29
MACKINAC ISLAN CLOUDY    34  31  88 SE7       29.57S WCI  28
NEWBERRY       CLOUDY    32  32  99 SE3       29.54S FOG
S. S. MARIE    CLOUDY    34  32  92 E5        29.57S FOG     WCI  30
MUNISING         N/A     33  31  92 S3        29.53S
$$
MIZ004>006-011>014-085-081100-
CENTRAL UPPER MICHIGAN

CITY           SKY/WX    TMP DP  RH WIND       PRES   REMARKS
MANISTIQUE     CLOUDY    32  31  98 CALM      29.54S FOG
ESCANABA       CLOUDY    32  30  93 CALM      29.55R
MENOMINEE      CLOUDY    32  27  80 CALM      29.54S
SAWYER-GWINN   LGT SNOW  30  30 100 CALM      29.51S
$$
MIZ001>003-009>011-084-081100-
WESTERN UPPER MICHIGAN

CITY           SKY/WX    TMP DP  RH WIND       PRES   REMARKS
IRON MOUNTAIN  CLOUDY    28  27  96 CALM      29.51R FOG
HOUGHTON       LGT SNOW  23  19  85 N18       29.56R FOG     WCI   9
COPPER HARBOR    N/A     26  24  92 NE21G28   29.59R WCI  12
IRONWOOD       CLOUDY    21  19  93 N9        29.61R WCI  11
$$

ABBREVIATIONS USED IN REMARKS
   TC - TEMPERATURE IN CELSIUS
  WCI - WIND CHILL INDEX
   HX - HEAT INDEX
  VSB - VISIBILITY





USA.gov is the U.S. government's official web portal to all federal, state and local government web resources and services.